Location: Unspecified
(48.8656°N, 0.0000°E)
Time: 21:33:07
(UTC+00:00)

Transit 2A Rocket - Pass Details

Date: 20 June 2019
Orbit: 588 x 915 km, 66.7° (Epoch: 16 July)

Event Time Altitude Azimuth Distance (km) Brightness Sun altitude
Rises 18:51:39 0° 324° (NW) 3,354 9.5 9.7°
Reaches altitude 10° 18:54:13 10° 325° (NW) 2,368 8.8 9.3°
Maximum altitude 18:59:38 82° 54° (NE) 750 5.1 8.5°
Drops below altitude 10° 19:04:31 10° 142° (SE) 2,133 6.8 7.8°
Sets 19:06:43 0° 143° (SE) 2,998 7.5 7.5°
